Location: Seattle
(47.6064°N, 122.3308°W)
Time: 03:08:06
(UTC-08:00)

N. Korean satellite - Pass Details

Date: 03 November 2020
Orbit: 453 x 503 km, 97.2° (Epoch: 03 December)

Event Time Altitude Azimuth Distance (km) Brightness Sun altitude
Rises 05:18:30 0° 20° (NNE) 2,478 10.4 -17.0°
Reaches altitude 10° 05:20:39 10° 29° (NNE) 1,600 9.5 -16.6°
Maximum altitude 05:23:51 37° 98° (E) 733 8.1 -16.1°
Drops below altitude 10° 05:27:03 10° 167° (SSE) 1,596 9.4 -15.6°
Sets 05:29:11 0° 176° (S) 2,470 10.3 -15.2°
